Date,TemperatureHighF,TemperatureAvgF,TemperatureLowF,DewpointHighF,DewpointAvgF,DewpointLowF,HumidityHigh,HumidityAvg,HumidityLow,PressureMaxIn,PressureMinIn,WindSpeedMaxMPH,WindSpeedAvgMPH,GustSpeedMaxMPH,PrecipitationSumIn
2013-1-1,21.1,13.4,3.7,13.7,8.2,0.4,88,80,61,30.41,30.21,12,4,12,0.00
2013-1-2,33.1,24.1,14.0,29.8,20.4,9.9,90,86,81,30.30,30.13,16,5,16,0.00
2013-1-3,30.0,23.1,17.0,26.7,19.2,13.8,89,85,76,30.48,30.30,22,7,22,0.00
2013-1-4,33.6,22.8,16.9,22.3,17.3,13.7,91,80,60,30.38,30.21,14,5,14,0.00
2013-1-5,29.5,23.2,15.9,24.9,18.9,13.5,93,83,74,30.29,30.06,30,7,30,0.00
2013-1-6,34.2,23.9,13.0,24.8,18.9,10.4,90,81,68,30.40,30.19,26,5,26,0.00
2013-1-7,38.3,31.8,23.5,30.1,26.0,21.8,94,79,68,30.19,30.00,20,5,20,0.00
2013-1-8,39.9,31.5,23.0,32.1,27.4,21.5,96,85,72,30.18,29.90,16,5,16,0.00
2013-1-9,43.4,35.5,27.8,33.5,29.5,23.8,87,79,64,30.48,30.18,14,4,14,0.00
2013-1-10,38.6,36.1,33.5,35.9,31.6,25.8,98,84,64,30.38,29.72,21,6,21,0.13
2013-1-11,51.2,40.0,26.2,46.0,37.8,19.4,99,92,76,29.78,29.41,34,8,34,0.01
2013-1-12,26.2,18.5,10.8,20.0,10.7,4.8,78,71,62,30.21,29.78,32,11,32,0.00
2013-1-13,20.5,13.1,7.4,8.8,5.6,2.8,82,72,56,30.44,30.21,22,8,22,0.00
2013-1-14,27.7,17.7,8.2,15.3,9.9,4.4,86,72,53,30.56,30.44,12,4,12,0.00
2013-1-15,34.2,23.5,12.4,20.9,15.4,8.2,85,72,50,30.44,30.11,16,4,16,0.00
2013-1-16,49.6,35.8,23.8,35.3,27.5,17.3,87,73,55,30.28,29.97,19,8,19,0.00
2013-1-17,32.2,28.0,23.7,31.0,26.7,22.2,97,95,87,30.51,30.28,14,3,15,0.00
2013-1-18,49.9,39.4,28.4,35.0,31.1,26.6,94,73,54,30.34,29.91,24,7,24,0.00
2013-1-19,51.9,40.2,22.8,34.5,29.0,14.5,80,65,49,30.38,29.89,33,11,37,0.00
2013-1-20,22.8,17.5,13.5,14.3,9.1,-99.9,85,72,55,30.50,30.35,19,6,19,0.00
2013-1-21,15.7,10.9,5.6,11.6,0.2,-5.0,84,62,51,30.55,30.46,27,7,27,0.00
2013-1-22,20.9,14.1,10.4,14.1,8.8,1.8,87,80,64,30.50,30.35,10,3,11,0.04
2013-1-23,28.5,18.4,10.6,21.2,12.3,3.1,87,77,66,30.61,30.27,23,8,23,0.00
2013-1-24,19.0,11.0,2.8,8.4,1.0,-4.8,73,64,55,30.67,30.29,20,7,20,0.00
2013-1-25,46.4,28.7,15.7,29.2,18.9,7.4,83,67,47,30.32,30.22,18,5,18,0.00
2013-1-26,47.7,31.0,16.8,28.7,21.8,11.8,86,70,47,30.33,30.07,22,8,22,0.00
2013-1-27,41.4,37.9,34.3,40.9,35.7,25.7,98,92,63,30.07,29.73,21,6,21,0.20
2013-1-28,43.5,38.3,33.6,43.5,38.1,33.3,100,99,98,29.91,29.59,13,4,13,0.01
2013-1-29,40.5,33.5,30.0,40.4,32.1,29.0,100,95,88,29.74,29.59,28,10,28,0.00
2013-1-30,30.0,21.6,13.7,29.4,18.2,10.2,98,87,73,30.02,29.67,36,13,37,0.24
2013-1-31,15.4,7.3,-0.3,10.6,0.5,-5.5,82,73,63,30.56,30.02,35,12,35,0.00
2013-2-1,27.0,13.8,-2.9,21.2,8.0,-6.6,85,78,71,30.57,30.17,23,6,23,0.00
2013-2-2,38.5,29.8,24.4,33.1,25.3,20.2,91,83,74,30.28,30.12,34,6,34,0.00
2013-2-3,41.9,33.2,21.2,30.6,25.5,16.3,85,74,58,30.29,29.83,36,7,36,0.00
2013-2-4,37.9,27.3,22.3,30.8,23.6,20.3,93,86,75,30.08,29.82,27,7,27,0.00
2013-2-5,48.1,37.0,25.6,35.4,29.3,24.1,95,75,50,30.12,29.91,28,6,28,0.00
2013-2-6,55.5,40.6,31.6,41.6,34.1,27.5,88,78,57,30.13,29.88,20,5,21,0.00
2013-2-7,41.5,34.1,29.8,37.3,30.7,25.1,93,87,82,30.31,29.92,28,11,29,0.00
2013-2-8,33.1,29.0,25.9,29.1,26.3,24.0,94,89,83,30.41,30.20,18,6,19,0.00
2013-2-9,49.2,38.0,29.0,40.3,33.7,27.5,95,85,70,30.23,29.71,25,11,27,0.00
2013-2-10,45.6,37.5,30.1,43.2,34.1,24.0,98,88,77,29.85,29.29,38,14,38,0.04
2013-2-11,35.9,30.0,23.9,27.3,24.0,21.1,90,78,68,30.23,29.85,35,11,35,0.00
2013-2-12,47.9,33.1,19.6,28.5,23.6,17.8,95,71,41,30.22,29.96,19,5,19,0.00
2013-2-13,53.1,38.2,25.2,34.0,27.9,22.1,90,68,42,29.97,29.77,19,6,19,0.00
2013-2-14,44.2,36.0,21.4,33.2,28.1,15.9,95,74,47,30.33,29.84,32,10,32,0.04
2013-2-15,31.1,22.1,13.5,25.6,17.0,10.5,94,81,58,30.44,30.33,17,5,19,0.06
2013-2-16,32.4,23.3,10.5,26.6,19.7,8.4,94,86,76,30.43,30.09,13,5,15,0.00
2013-2-17,53.4,37.4,22.9,38.6,29.5,20.4,90,74,56,30.09,29.60,23,8,24,0.00
2013-2-18,43.4,31.8,21.2,35.0,26.1,16.6,95,79,67,30.12,29.58,37,14,40,0.02
2013-2-19,25.7,16.7,9.6,18.1,6.2,1.5,82,64,37,30.48,30.13,30,13,30,0.00
2013-2-20,24.7,15.7,5.9,10.1,5.3,-0.1,78,64,49,30.50,30.31,18,7,19,0.00
2013-2-21,24.4,21.8,20.8,21.1,16.0,9.5,95,79,58,30.35,29.92,26,10,27,0.45
2013-2-22,21.4,18.0,11.1,20.2,16.6,9.2,95,94,92,30.13,29.92,19,7,19,0.01
2013-2-23,37.2,21.6,6.8,28.7,17.7,4.5,93,85,69,30.11,29.93,12,4,13,0.00
2013-2-24,41.2,30.4,18.1,30.2,25.2,16.3,95,82,57,30.14,29.98,13,3,13,0.00
2013-2-25,34.7,29.4,25.9,28.9,26.3,23.9,96,88,77,30.14,29.97,20,8,20,0.00
2013-2-26,31.7,27.9,24.9,29.0,26.2,24.0,97,93,88,29.99,29.84,25,11,25,0.00
2013-2-27,36.4,29.7,23.9,28.2,24.6,20.5,93,82,65,30.17,29.97,34,15,34,0.00
2013-2-28,32.2,27.2,24.8,26.3,23.4,20.8,89,85,78,30.31,30.17,29,13,30,0.00
2013-3-1,27.7,25.1,23.0,22.2,20.0,17.4,88,81,70,30.44,30.30,23,10,23,0.00
2013-3-2,35.7,26.8,17.6,25.3,20.3,14.1,89,77,58,30.44,30.17,14,4,14,0.00
2013-3-3,40.6,34.2,25.6,32.7,28.4,23.1,90,79,72,30.17,29.77,23,9,23,0.00
2013-3-4,41.9,35.1,29.5,33.5,29.8,23.3,93,81,65,30.09,29.71,21,9,22,0.00
2013-3-5,33.8,28.3,24.2,23.9,21.1,17.9,80,74,65,30.47,30.07,44,17,44,0.00
2013-3-6,39.2,29.2,21.3,25.5,21.9,17.5,87,75,55,30.51,30.31,20,6,20,0.00
2013-3-7,51.1,35.1,24.1,32.9,27.0,20.8,89,74,47,30.35,30.16,25,9,25,0.00
2013-3-8,55.0,41.7,30.2,41.2,34.3,26.8,92,76,56,30.24,29.94,25,9,26,0.33
2013-3-9,54.2,46.0,35.9,52.2,44.2,34.3,96,93,88,29.95,29.55,33,8,33,0.26
2013-3-10,35.8,28.6,23.3,34.2,27.2,-99.9,98,96,93,30.01,29.69,41,18,41,0.69
2013-3-11,29.8,24.3,21.0,23.9,21.0,18.8,96,87,73,30.09,29.96,27,9,27,0.00
2013-3-12,33.2,28.5,23.0,26.8,23.4,19.3,92,81,71,30.42,30.09,34,10,34,0.00
2013-3-13,36.7,27.5,17.5,26.8,21.0,15.2,92,77,56,30.53,30.31,12,4,13,0.00
2013-3-14,55.2,41.9,32.1,43.5,34.3,25.1,88,75,60,30.31,30.11,14,5,14,0.00
2013-3-15,58.7,46.2,36.8,47.1,40.4,34.8,94,81,62,30.11,29.75,21,6,21,0.00
2013-3-16,40.0,32.8,28.7,38.1,28.7,24.9,96,85,74,30.23,29.88,31,10,31,0.00
2013-3-17,45.5,34.1,24.3,34.8,27.5,20.7,96,77,59,30.20,29.80,23,9,23,0.01
2013-3-18,37.4,33.9,26.5,34.7,25.1,17.5,97,72,47,30.11,29.78,38,12,38,0.07
2013-3-19,51.2,33.1,20.5,30.6,20.8,14.9,82,62,31,30.40,30.11,30,7,32,0.00
2013-3-20,35.7,25.4,16.8,18.8,12.3,7.2,78,59,39,30.47,30.18,27,10,29,0.00
2013-3-21,32.7,27.2,21.7,20.5,15.9,12.5,76,63,44,30.18,29.99,18,7,18,0.00
2013-3-22,34.9,31.4,26.8,24.3,21.2,18.7,78,66,55,30.09,30.03,13,5,13,0.00
2013-3-23,37.6,32.6,29.3,31.0,26.7,21.7,96,80,59,30.17,30.07,20,6,21,0.04
2013-3-24,29.5,27.0,25.7,28.3,23.6,20.9,96,87,75,30.16,30.10,31,14,31,0.04
2013-3-25,30.6,27.1,22.9,25.4,23.3,18.8,93,86,72,30.43,30.15,29,14,31,0.00
2013-3-26,40.7,28.5,17.3,28.3,20.9,14.0,88,74,55,30.47,30.31,12,4,12,0.00
2013-3-27,52.1,39.1,26.4,33.1,28.4,22.5,86,67,46,30.34,30.23,22,8,22,0.00
2013-3-28,58.1,44.2,29.2,36.9,32.6,27.4,95,67,40,30.30,30.19,12,3,13,0.00
2013-3-29,68.6,52.4,35.5,42.7,35.5,31.9,90,57,27,30.25,30.05,22,6,22,0.00
2013-3-30,65.8,55.9,48.1,55.8,45.4,35.3,97,71,37,30.09,29.90,27,8,27,0.42
2013-3-31,57.1,47.3,32.7,43.6,35.3,25.0,95,68,33,30.17,29.95,31,11,32,0.05
2013-4-1,40.6,31.2,22.7,31.3,21.8,17.9,95,70,43,30.40,30.17,23,8,24,0.02
2013-4-2,51.8,38.9,26.2,31.0,24.3,18.1,79,58,39,30.40,30.29,16,3,16,0.00
2013-4-3,55.7,41.8,30.3,32.8,27.1,23.9,78,58,37,30.40,30.25,25,7,26,0.00
2013-4-4,62.7,48.2,32.7,42.3,34.3,26.6,86,61,43,30.27,30.08,19,6,20,0.00
2013-4-5,69.1,52.9,35.4,42.9,36.3,31.1,85,56,30,30.19,29.73,29,10,31,0.00
2013-4-6,69.4,59.0,49.3,48.5,43.0,40.1,78,57,36,29.78,29.60,31,10,31,0.00
2013-4-7,73.8,55.0,45.0,51.5,41.6,-99.9,93,67,35,29.85,29.63,20,6,20,0.27
2013-4-8,66.8,57.9,48.2,60.8,55.2,46.8,99,91,79,29.71,29.62,14,6,20,0.11
2013-4-9,62.9,46.8,34.4,60.5,45.6,33.4,97,96,87,29.97,29.57,24,12,35,0.85
2013-4-10,38.4,35.9,32.8,37.6,35.1,32.3,98,97,93,30.00,29.81,20,11,32,0.39
2013-4-11,36.1,32.9,30.4,34.0,31.0,28.7,98,92,87,29.84,29.70,15,11,21,0.10
2013-4-12,41.4,35.6,31.3,33.2,30.9,28.2,92,83,69,30.06,29.77,17,11,24,0.00
2013-4-13,54.1,41.9,28.0,41.8,34.4,24.9,93,76,61,30.08,29.68,16,8,22,0.00
2013-4-14,66.7,52.9,43.5,54.1,44.1,34.4,89,73,47,29.71,29.33,20,10,29,0.12
2013-4-15,45.6,40.1,33.8,34.5,30.9,25.3,86,70,62,30.13,29.67,14,8,19,0.00
2013-4-16,51.7,43.2,35.9,36.0,32.1,29.3,81,66,45,30.28,30.10,14,8,21,0.00
2013-4-17,46.8,42.0,37.1,42.6,38.8,35.2,98,89,66,30.19,29.70,21,10,29,0.81
2013-4-18,37.0,34.2,31.7,35.9,32.3,28.9,98,93,83,29.95,29.73,24,19,39,0.57
2013-4-19,46.1,36.9,28.8,30.0,25.9,23.5,85,66,44,30.15,29.91,20,13,30,0.00
2013-4-20,46.8,37.6,25.6,31.2,25.3,20.6,88,63,41,30.31,30.15,13,7,19,0.00
2013-4-21,67.1,54.7,43.3,51.1,40.6,30.7,95,61,39,30.18,29.99,20,10,31,0.33
2013-4-22,52.1,44.1,33.3,51.1,43.0,30.1,99,96,88,30.23,29.94,22,9,32,1.29
2013-4-23,39.2,33.5,28.3,31.9,27.0,23.6,89,77,64,30.31,30.19,21,14,30,0.00
2013-4-24,59.5,40.7,24.4,39.8,29.0,21.1,88,67,29,30.27,30.08,21,8,27,0.00
2013-4-25,69.1,51.1,33.5,39.2,34.6,29.7,87,58,28,30.29,30.04,16,7,27,0.00
2013-4-26,70.4,58.0,49.0,52.2,45.2,37.8,90,63,46,30.18,30.02,16,9,20,0.00
2013-4-27,69.3,54.7,42.2,53.9,48.1,40.9,98,81,51,30.21,29.93,7,4,10,0.00
2013-4-28,81.5,63.4,45.2,55.6,49.9,43.9,96,66,33,29.94,29.65,14,7,22,0.00
2013-4-29,84.0,68.1,55.1,59.9,53.3,47.3,88,62,29,29.73,29.46,11,4,16,0.00
2013-4-30,73.3,68.8,61.3,59.0,51.1,43.5,64,54,44,29.83,29.43,16,11,25,0.00
2013-5-1,61.3,42.2,33.5,44.3,37.5,32.1,96,84,47,30.44,29.83,20,15,33,0.66
2013-5-2,49.1,39.6,33.2,35.8,31.9,28.8,97,75,54,30.58,30.42,20,13,30,0.75
2013-5-3,46.5,40.0,31.6,35.7,31.2,27.8,86,71,56,30.42,30.05,19,12,27,0.00
2013-5-4,43.6,39.7,35.8,41.1,37.3,32.6,95,91,78,30.16,29.99,20,15,33,0.07
2013-5-5,54.6,47.4,41.4,49.6,44.7,40.2,96,91,82,30.19,30.11,14,10,22,0.01
2013-5-6,67.3,54.6,47.1,55.2,49.3,45.6,95,84,58,30.16,30.02,9,4,12,0.00
2013-5-7,73.9,61.2,46.4,57.8,52.8,45.3,98,76,50,30.07,29.91,9,3,14,0.13
2013-5-8,67.3,62.1,56.4,60.5,57.0,52.6,93,83,75,29.93,29.85,7,4,13,0.04
2013-5-9,67.2,59.4,56.6,60.0,56.8,54.4,97,91,73,29.97,29.83,17,8,22,1.46
2013-5-10,68.0,57.7,49.1,55.3,49.6,45.9,94,76,49,30.08,29.97,14,8,21,0.00
2013-5-11,59.5,54.3,44.5,47.6,34.2,25.2,81,48,29,30.25,30.01,24,13,35,0.00
2013-5-12,65.4,52.3,36.9,35.7,29.5,21.6,76,44,25,30.29,30.10,6,3,10,0.00
2013-5-13,82.8,66.1,46.6,54.9,44.9,31.3,77,49,26,30.11,29.80,14,7,24,0.00
2013-5-14,98.2,80.3,57.8,61.8,54.3,44.1,90,47,16,29.80,29.56,17,7,28,0.00
2013-5-15,83.2,74.2,64.7,55.8,44.5,39.2,52,36,22,29.85,29.69,13,6,21,0.00
2013-5-16,83.9,72.3,59.6,65.5,56.8,46.8,82,59,44,29.81,29.69,10,4,18,0.00
2013-5-17,85.6,74.3,63.2,65.9,60.7,58.8,87,65,41,29.84,29.74,10,5,16,0.00
2013-5-18,85.0,74.4,61.2,67.6,63.5,58.1,91,70,50,29.83,29.62,16,8,25,0.00
2013-5-19,76.1,65.9,59.3,68.0,61.8,55.4,97,87,70,29.74,29.44,16,6,24,0.66
2013-5-20,76.0,65.6,56.8,61.7,56.0,51.5,95,73,50,29.61,29.46,15,8,27,0.01
2013-5-21,62.7,58.6,54.0,57.1,51.3,47.2,88,77,62,29.70,29.55,14,10,21,0.00
2013-5-22,59.8,55.0,51.5,54.1,50.3,48.8,93,84,73,29.96,29.69,16,10,22,0.01
2013-5-23,72.8,60.2,51.5,55.1,48.8,43.6,92,69,37,30.20,29.96,14,7,20,0.00
2013-5-24,74.7,63.1,49.9,53.1,48.6,44.3,82,61,41,30.26,29.99,17,9,26,0.00
2013-5-25,80.2,68.5,58.0,70.1,60.9,48.1,96,78,56,30.08,29.89,16,9,24,0.38
2013-5-26,83.6,71.5,63.9,72.1,66.1,61.6,94,84,65,29.94,29.76,12,7,18,0.00
2013-5-27,77.5,67.6,60.0,67.6,62.8,58.6,97,85,67,29.86,29.52,18,8,27,1.47
2013-5-28,80.5,69.8,61.7,69.1,63.3,-99.9,98,82,50,29.67,29.55,11,4,15,0.00
2013-5-29,74.7,68.5,62.8,70.6,64.9,60.3,95,88,75,29.67,29.46,15,10,25,0.96
2013-5-30,74.7,65.5,58.5,65.2,60.8,54.9,97,85,70,29.58,29.43,14,8,33,0.29
2013-5-31,77.9,68.0,57.7,58.2,53.3,48.0,90,61,38,29.67,29.56,13,7,22,0.00
2013-6-1,62.5,58.1,54.2,56.3,51.6,48.1,92,79,61,30.01,29.62,19,13,28,0.05
2013-6-2,67.7,58.0,50.4,52.9,47.5,44.1,89,70,45,30.11,29.99,15,6,25,0.00
2013-6-3,74.1,63.2,49.7,55.7,50.9,46.1,89,66,41,30.02,29.78,16,9,28,0.00
2013-6-4,72.8,65.8,59.2,65.5,60.6,55.5,93,83,73,29.95,29.82,13,6,20,0.09
2013-6-5,72.8,64.3,57.5,63.6,54.3,48.8,95,71,48,30.03,29.92,17,8,24,0.00
2013-6-6,72.8,63.2,55.3,59.6,52.9,49.7,88,70,49,29.97,29.91,12,6,19,0.00
2013-6-7,72.9,62.8,51.5,56.5,52.3,49.0,93,70,46,30.01,29.86,8,3,11,0.00
2013-6-8,69.9,62.3,56.7,64.0,57.7,51.4,97,85,70,29.86,29.61,15,7,20,1.17
2013-6-9,69.6,63.6,59.8,62.4,59.4,56.9,97,87,75,29.80,29.67,16,9,24,0.11
2013-6-10,78.3,66.7,55.1,67.2,61.4,53.6,97,84,58,29.87,29.72,11,5,16,0.01
2013-6-11,88.5,75.8,67.0,73.4,66.9,63.7,90,76,46,29.78,29.63,11,6,22,0.00
2013-6-12,86.4,76.1,62.3,74.5,65.8,54.3,87,71,54,29.96,29.59,21,11,29,0.00
2013-6-13,77.7,66.8,57.0,64.6,57.8,53.1,90,74,46,30.07,29.93,10,4,15,0.01
2013-6-14,89.2,73.2,62.5,73.8,65.4,57.6,94,78,58,29.99,29.68,20,9,31,1.81
2013-6-15,80.6,73.1,67.1,70.5,66.7,63.6,94,81,61,29.89,29.75,18,6,25,0.00
2013-6-16,85.1,74.8,66.3,71.7,65.2,57.7,98,75,44,29.93,29.87,8,3,13,0.01
2013-6-17,85.8,76.1,64.8,65.9,60.5,56.3,83,60,39,29.96,29.87,11,4,15,0.00
2013-6-18,86.5,72.5,64.7,65.7,57.4,-99.9,84,61,36,30.02,29.91,7,2,12,0.02
2013-6-19,86.3,75.5,64.3,68.8,63.3,56.0,87,67,46,29.95,29.82,14,7,24,0.00
2013-6-20,90.0,79.9,68.6,73.7,69.8,64.6,89,72,57,29.89,29.72,18,11,30,0.00
2013-6-21,94.2,84.6,77.0,75.7,72.1,70.1,81,67,48,29.79,29.67,17,11,27,0.00
2013-6-22,90.3,80.7,69.4,73.6,68.1,60.2,86,66,50,29.92,29.69,20,11,35,0.01
2013-6-23,79.7,73.4,64.8,71.4,67.6,62.8,94,82,69,29.88,29.66,16,6,24,1.42
2013-6-24,82.2,75.3,65.0,74.3,70.5,62.2,95,85,74,29.94,29.64,22,7,41,0.62
2013-6-25,86.1,78.8,68.6,76.4,71.3,64.7,95,78,66,29.74,29.58,13,6,21,0.01
2013-6-26,89.3,80.5,73.7,73.4,68.7,60.1,95,70,42,29.81,29.58,14,6,19,0.00
2013-6-27,83.3,74.3,68.8,72.2,67.3,60.3,92,79,61,29.94,29.81,9,3,16,0.13
2013-6-28,83.5,75.9,68.5,67.9,62.5,56.1,89,65,42,29.93,29.83,19,10,31,0.00
2013-6-29,79.7,71.6,64.5,63.0,58.7,55.6,77,64,50,29.90,29.82,21,11,30,0.00
2013-6-30,77.9,68.3,58.0,60.4,56.0,51.1,90,67,45,30.07,29.90,11,5,19,0.00
2013-7-1,81.8,70.3,56.8,60.0,54.8,51.2,83,60,36,30.15,30.05,10,4,19,0.00
2013-7-2,81.8,69.4,60.6,63.0,57.4,53.2,82,67,42,30.12,30.00,10,2,17,0.00
2013-7-3,82.5,71.0,59.7,65.9,59.3,53.1,95,69,41,30.02,29.89,12,4,18,0.00
2013-7-4,85.0,73.3,59.2,64.8,59.0,55.1,87,63,39,29.94,29.83,13,7,22,0.00
2013-7-5,86.3,76.1,65.4,68.9,63.3,58.3,80,65,49,29.86,29.75,14,8,23,0.00
2013-7-6,87.5,77.4,69.2,70.2,66.1,62.0,79,69,52,29.81,29.72,15,9,23,0.00
2013-7-7,91.5,81.4,72.2,74.4,68.6,63.0,77,66,49,29.82,29.73,11,6,20,0.00
2013-7-8,89.5,80.9,74.3,76.5,71.7,66.8,83,74,57,29.89,29.81,8,4,12,0.00
2013-7-9,92.9,83.3,73.9,78.3,73.3,69.2,89,73,52,29.87,29.78,9,4,16,0.00
2013-7-10,83.6,76.5,68.9,71.9,66.8,62.8,90,73,54,30.02,29.87,10,4,15,0.00
2013-7-11,84.8,74.7,63.2,67.5,63.0,58.8,92,68,50,30.04,29.89,12,6,18,0.00
2013-7-12,88.4,77.6,66.4,74.2,66.7,60.7,83,70,59,29.94,29.83,15,10,22,0.00
2013-7-13,88.4,78.9,72.4,75.0,68.6,63.0,79,71,60,29.90,29.83,14,10,21,0.00
2013-7-14,85.0,76.7,69.5,67.8,64.2,61.1,80,67,46,30.08,29.90,15,8,25,0.00
2013-7-15,87.4,76.6,63.9,74.2,67.4,60.5,91,74,52,30.13,30.04,9,4,15,0.00
2013-7-16,88.9,78.7,67.2,71.3,68.3,65.3,94,72,51,30.19,30.10,8,3,13,0.00
2013-7-17,90.5,81.0,70.3,74.4,70.9,67.7,93,73,52,30.23,30.08,9,4,15,0.00
2013-7-18,91.5,82.0,71.9,73.5,69.9,67.3,88,68,47,30.10,29.85,12,6,20,0.00
2013-7-19,91.3,82.1,74.6,74.4,67.9,57.8,77,63,40,29.86,29.79,9,5,16,0.08
2013-7-20,86.3,77.1,64.4,68.6,63.5,54.9,87,64,37,29.92,29.78,12,3,16,0.00
2013-7-21,88.8,77.3,69.5,74.6,69.7,65.7,95,79,58,29.86,29.68,17,4,25,0.38
2013-7-22,91.7,80.1,67.5,79.1,72.2,64.0,97,78,56,29.77,29.66,11,4,16,0.00
2013-7-23,81.8,73.3,65.2,68.7,64.5,62.3,94,75,59,29.97,29.75,11,4,20,0.11
2013-7-24,82.1,72.1,59.9,68.3,62.9,57.1,92,74,53,30.03,29.92,8,2,13,0.00
2013-7-25,79.3,72.6,67.1,70.4,65.7,62.4,91,79,58,29.99,29.92,11,4,19,0.00
2013-7-26,76.0,69.2,59.6,67.2,60.4,53.6,97,75,52,30.06,29.91,17,8,23,0.00
2013-7-27,72.8,63.5,54.4,55.1,51.8,48.1,90,68,45,30.10,29.97,12,5,21,0.00
2013-7-28,75.5,64.7,51.1,56.8,52.0,46.9,93,65,42,30.04,29.97,7,2,16,0.00
2013-7-29,66.3,62.8,58.9,63.7,58.7,51.0,97,87,65,30.02,29.96,11,5,16,0.12
2013-7-30,74.5,69.0,64.5,68.6,65.7,63.6,98,90,78,30.06,29.98,8,3,11,0.01
2013-7-31,83.0,72.8,62.2,70.4,65.9,60.9,98,80,58,30.09,29.98,6,2,10,0.00
2013-8-1,85.0,73.3,64.2,71.5,66.6,62.5,95,81,58,30.04,29.78,18,5,25,0.49
2013-8-2,83.1,73.9,64.9,71.8,66.9,61.0,97,79,62,29.95,29.74,11,4,24,0.00
2013-8-3,78.0,70.7,63.4,63.5,60.2,57.9,84,70,56,30.12,29.96,10,4,14,0.00
2013-8-4,77.3,69.9,60.5,67.6,62.1,56.6,90,77,62,30.13,29.97,13,6,16,0.00
2013-8-5,84.8,75.3,68.0,76.3,71.3,65.7,96,88,73,29.98,29.77,11,4,18,0.00
2013-8-6,87.2,76.9,66.8,77.3,71.8,64.7,98,85,67,29.89,29.71,12,4,21,0.09
2013-8-7,82.9,75.0,67.2,74.2,66.2,59.8,95,75,50,29.93,29.75,10,4,16,0.00
2013-8-8,76.9,70.2,63.6,67.2,63.9,61.2,93,81,63,29.97,29.88,6,2,9,0.00
2013-8-9,80.0,71.4,63.4,71.4,64.3,58.6,97,80,56,30.09,29.96,9,3,14,0.00
2013-8-10,81.6,70.7,57.9,67.1,61.9,56.0,95,75,53,30.15,30.02,3,0,7,0.00
2013-8-11,85.0,74.7,65.0,72.1,66.5,60.8,89,76,58,30.07,29.92,5,2,12,0.00
2013-8-12,83.0,75.2,67.6,71.6,66.4,59.8,93,75,47,30.01,29.92,8,1,12,0.00
2013-8-13,78.8,70.4,61.9,63.4,59.2,55.9,89,69,46,30.11,30.00,8,3,12,0.00
2013-8-14,74.8,66.9,58.1,63.4,59.1,55.2,91,77,58,30.15,30.02,9,5,15,0.02
2013-8-15,66.0,62.8,60.1,62.0,60.2,58.9,97,91,86,30.07,29.99,12,7,19,0.70
2013-8-16,74.0,66.3,61.8,63.6,59.9,58.0,93,80,64,30.14,30.06,12,6,17,0.00
2013-8-17,78.2,68.0,58.8,62.7,59.1,56.3,95,75,53,30.15,30.06,11,5,17,0.00
2013-8-18,79.3,68.1,55.0,64.1,59.7,53.6,96,76,53,30.11,30.00,11,5,19,0.00
2013-8-19,84.8,74.3,64.0,71.6,66.7,61.3,92,78,61,30.03,29.86,14,7,24,0.00
2013-8-20,87.8,78.0,69.6,73.7,69.7,66.3,90,77,60,29.90,29.83,13,8,23,0.00
2013-8-21,90.4,79.7,70.7,75.0,70.5,66.7,88,74,58,29.92,29.85,12,7,20,0.00
2013-8-22,83.0,75.9,69.4,71.8,68.9,65.8,90,79,65,30.03,29.89,11,5,17,0.00
2013-8-23,88.6,78.2,69.1,75.1,70.2,67.3,95,78,53,30.01,29.89,13,6,22,0.00
2013-8-24,90.8,81.3,73.6,75.4,71.8,68.8,86,74,59,29.99,29.90,17,10,28,0.00
2013-8-25,93.2,82.3,72.0,75.6,72.5,69.0,91,74,52,30.03,29.94,13,9,21,0.00
2013-8-26,93.6,83.0,73.4,75.3,71.9,69.5,88,70,52,30.00,29.86,13,8,23,0.00
2013-8-27,94.5,83.6,76.1,73.8,70.2,66.7,77,65,47,29.87,29.80,13,8,23,0.00
2013-8-28,93.8,80.5,66.4,74.5,67.6,63.3,91,67,38,29.91,29.84,9,4,17,0.00
2013-8-29,94.6,81.8,70.1,78.0,71.8,66.7,94,73,49,29.92,29.81,12,5,19,0.00
2013-8-30,94.0,82.1,69.7,79.7,72.5,66.7,92,74,49,29.82,29.74,10,5,15,0.00
2013-8-31,92.0,80.0,72.1,75.9,71.7,66.6,95,78,45,29.81,29.69,9,3,13,0.00
2013-9-1,82.6,74.7,65.9,71.3,64.5,58.9,94,73,46,29.94,29.68,17,7,29,0.02
2013-9-2,78.7,67.9,58.3,63.2,57.7,51.5,96,73,41,30.05,29.93,10,4,14,0.00
2013-9-3,84.2,69.4,54.3,67.9,60.3,53.1,97,75,48,30.06,29.96,7,3,11,0.00
2013-9-4,85.7,73.6,65.8,69.9,63.8,60.8,87,72,47,30.10,29.98,9,4,14,0.00
2013-9-5,84.8,74.8,67.5,70.2,65.8,64.0,93,74,52,30.13,30.02,13,5,15,0.06
2013-9-6,91.5,78.3,66.7,72.0,67.1,61.3,86,70,50,30.03,29.82,14,8,21,0.00
2013-9-7,88.2,78.2,70.8,74.0,69.9,66.1,89,76,55,29.84,29.76,11,6,15,0.00
2013-9-8,91.0,79.7,70.6,77.4,72.7,69.1,96,81,56,29.84,29.70,10,4,15,0.00
2013-9-9,95.5,83.9,75.3,72.2,64.3,54.8,89,54,27,29.76,29.69,16,9,26,0.00
2013-9-10,94.1,77.6,68.1,74.3,65.7,60.8,94,69,41,30.00,29.76,18,6,26,2.00
2013-9-11,83.3,73.8,67.8,73.3,69.0,66.0,97,86,65,30.05,29.96,9,4,14,0.24
2013-9-12,78.2,70.6,59.9,69.3,58.6,50.9,96,68,41,30.17,30.05,13,5,16,0.00
2013-9-13,74.2,64.1,53.5,59.0,53.1,50.0,89,69,46,30.19,30.03,6,3,10,0.00
2013-9-14,75.8,65.1,53.5,57.7,53.9,49.6,90,69,48,30.04,29.82,14,7,24,0.00
2013-9-15,68.9,65.2,62.4,65.8,59.4,54.4,96,82,67,30.20,29.80,16,8,21,0.40
2013-9-16,67.2,61.0,55.6,57.9,54.8,52.0,93,81,70,30.29,30.16,11,6,18,0.01
2013-9-17,73.6,64.0,57.3,69.4,62.1,55.9,98,94,83,30.16,29.84,12,7,19,0.35
2013-9-18,88.6,77.1,66.7,72.6,68.5,65.2,95,77,54,29.85,29.61,18,10,28,0.00
2013-9-19,80.3,71.2,58.7,69.0,62.8,51.3,94,75,60,29.95,29.64,17,8,25,0.23
2013-9-20,69.9,59.1,49.0,53.9,49.1,44.8,92,71,44,30.05,29.94,15,7,22,0.00
2013-9-21,76.0,60.9,44.8,55.5,50.0,43.4,95,70,44,30.01,29.82,10,5,14,0.00
2013-9-22,80.3,67.1,53.3,59.5,53.5,48.6,93,65,35,29.86,29.74,17,9,27,0.00
2013-9-23,76.2,65.7,53.9,57.2,53.2,50.5,89,66,45,29.79,29.67,20,12,28,0.00
2013-9-24,70.9,64.6,58.0,61.9,57.4,53.9,93,78,65,29.87,29.65,17,6,23,0.00
2013-9-25,78.7,66.0,52.4,63.0,58.3,51.6,98,78,53,29.88,29.69,13,6,21,0.00
2013-9-26,85.7,72.6,61.3,63.2,60.4,58.3,92,68,42,29.75,29.66,20,13,31,0.00
2013-9-27,87.1,76.5,70.0,63.7,61.1,58.0,75,60,40,29.77,29.68,21,13,32,0.00
2013-9-28,73.7,60.8,50.0,61.5,49.8,43.9,94,69,45,30.02,29.62,16,9,26,0.43
2013-9-29,76.0,61.3,47.6,50.6,45.7,42.5,86,60,33,30.03,29.85,13,7,20,0.00
2013-9-30,80.5,65.4,53.1,55.5,51.6,47.6,87,63,37,29.86,29.66,14,8,23,0.00
2013-10-1,78.2,66.2,55.7,58.3,53.3,49.1,89,65,42,29.91,29.72,11,4,14,0.00
2013-10-2,83.9,70.3,57.3,67.6,60.1,48.4,94,72,48,29.91,29.76,15,6,24,0.00
2013-10-3,81.2,68.8,61.1,69.2,62.7,58.6,96,82,63,29.82,29.65,21,6,33,1.37
2013-10-4,82.7,67.0,50.8,72.6,61.1,40.4,96,83,55,29.85,29.56,16,10,26,0.91
2013-10-5,53.6,45.9,41.6,41.7,33.8,-99.9,89,67,54,29.91,29.80,16,11,27,0.00
2013-10-6,50.3,46.3,41.5,46.8,42.8,38.6,92,88,73,30.01,29.77,17,9,23,0.06
2013-10-7,73.0,56.4,42.6,49.3,42.5,38.7,89,63,33,30.08,29.97,12,6,18,0.00
2013-10-8,76.9,62.4,47.9,50.1,45.9,42.3,82,57,35,29.97,29.85,18,10,27,0.00
2013-10-9,77.6,64.0,52.3,54.8,50.9,47.5,84,64,42,29.96,29.88,15,10,26,0.00
2013-10-10,79.6,66.1,54.0,58.7,54.0,49.5,86,67,45,29.95,29.74,17,10,28,0.00
2013-10-11,77.8,65.5,52.0,61.4,52.1,40.7,84,65,28,29.85,29.57,18,12,28,0.00
2013-10-12,65.7,52.3,43.8,44.0,33.8,-99.9,84,56,29,30.27,29.85,12,5,19,0.00
2013-10-13,67.9,54.0,39.0,42.7,37.4,33.4,86,56,33,30.40,30.26,11,5,14,0.00
2013-10-14,59.9,53.8,47.0,58.8,47.2,35.9,97,79,53,30.27,29.67,20,11,35,1.15
2013-10-15,55.0,48.1,45.4,51.3,42.0,38.1,88,80,72,30.06,29.77,17,12,28,0.00
2013-10-16,56.1,47.5,42.8,42.5,38.0,28.3,87,71,38,30.08,29.96,11,6,16,0.00
2013-10-17,59.4,46.8,37.0,45.8,38.6,32.8,87,74,52,30.06,29.88,17,8,25,0.00
2013-10-18,50.8,41.9,34.7,39.9,33.5,29.8,92,73,48,30.14,30.01,10,5,15,0.00
2013-10-19,61.9,46.7,33.7,40.6,35.5,30.5,89,67,42,30.01,29.80,15,7,27,0.00
2013-10-20,64.3,51.9,41.6,47.2,40.5,35.8,81,66,42,30.01,29.69,15,8,21,0.00
2013-10-21,53.5,42.0,31.5,39.9,35.7,29.8,94,79,56,30.11,29.94,11,4,15,0.00
2013-10-22,48.6,43.4,37.7,43.6,38.2,32.7,91,82,72,30.12,29.86,17,7,26,0.00
2013-10-23,49.0,39.9,31.2,41.9,36.0,29.7,95,86,71,30.21,30.06,11,4,16,0.00
2013-10-24,48.4,39.3,30.4,34.9,29.7,25.7,91,70,43,30.43,30.21,13,6,17,0.00
2013-10-25,58.3,44.6,31.0,37.4,30.9,24.6,79,60,43,30.43,30.06,16,7,26,0.00
2013-10-26,50.9,44.1,31.6,38.3,33.5,26.8,84,67,49,30.22,30.01,15,8,20,0.00
2013-10-27,69.1,49.0,32.8,41.2,34.2,27.5,82,60,33,30.16,29.83,11,6,19,0.00
2013-10-28,54.8,46.7,40.8,41.2,38.0,34.5,84,72,58,30.19,29.95,13,7,19,0.00
2013-10-29,53.6,47.7,42.5,52.9,46.1,40.3,98,94,79,30.22,29.95,10,5,15,0.17
2013-10-30,58.2,49.2,42.7,56.3,48.4,41.4,99,97,93,29.97,29.76,14,6,17,0.07
2013-10-31,56.7,45.0,37.6,47.3,40.1,36.6,98,84,58,29.78,29.53,14,5,23,0.00
2013-11-1,59.4,46.5,38.7,44.9,39.7,36.0,91,78,45,30.01,29.62,24,9,31,0.13
2013-11-2,57.4,45.1,35.7,41.5,35.9,32.8,90,72,41,30.22,30.01,15,6,20,0.00
2013-11-3,56.8,49.3,39.5,40.0,36.6,33.1,79,62,48,30.11,29.76,23,14,38,0.00
2013-11-4,55.3,48.9,37.9,45.4,40.3,33.8,86,73,57,30.15,29.78,15,6,20,0.00
2013-11-5,46.0,41.5,35.2,44.1,38.5,33.6,96,89,75,30.16,29.84,20,9,30,1.04
2013-11-6,42.9,36.4,31.8,36.2,33.1,29.7,95,88,76,30.31,30.06,18,7,26,0.01
2013-11-7,47.7,37.8,30.7,34.6,28.7,24.8,93,72,42,30.45,30.31,14,6,22,0.00
2013-11-8,61.9,48.4,34.8,40.7,34.6,26.2,75,60,39,30.31,29.76,22,10,29,0.00
2013-11-9,58.9,49.1,39.1,40.8,36.1,32.5,77,62,44,30.37,29.93,12,7,16,0.00
2013-11-10,52.4,43.3,30.8,38.3,32.1,27.3,88,66,43,30.43,30.16,9,5,15,0.00
2013-11-11,46.3,33.1,19.1,43.8,26.3,12.2,92,76,57,30.82,30.12,19,12,27,0.00
2013-11-12,33.2,22.2,11.7,15.1,11.4,7.6,87,65,35,30.97,30.63,11,5,16,0.00
2013-11-13,53.7,38.1,23.5,31.7,23.7,13.6,73,57,42,30.64,30.03,15,10,27,0.00
2013-11-14,53.3,42.8,34.6,38.3,31.6,25.8,76,65,53,30.03,29.92,9,4,13,0.00
2013-11-15,55.8,42.8,28.1,43.2,35.3,26.1,93,77,52,29.92,29.61,13,6,23,0.00
2013-11-16,63.6,52.5,41.9,53.6,42.6,33.2,95,71,43,29.61,29.31,18,8,26,0.00
2013-11-17,55.7,47.2,37.0,45.7,38.3,33.1,88,71,58,30.08,29.31,14,7,20,0.02
2013-11-18,56.9,41.5,28.8,34.5,28.2,23.8,89,63,28,30.28,30.08,8,5,14,0.00
2013-11-19,61.6,48.5,34.4,36.5,29.9,26.5,74,51,31,30.22,29.89,29,12,37,0.00
2013-11-20,57.0,47.8,37.8,39.5,35.4,30.0,91,63,48,29.95,29.75,24,10,25,0.00
2013-11-21,37.7,29.3,21.6,35.6,25.3,18.9,95,85,74,30.62,29.95,32,14,33,0.01
2013-11-22,29.0,21.5,14.5,18.9,13.0,8.9,89,70,52,30.79,30.62,28,8,28,0.05
2013-11-23,24.2,17.9,12.6,16.8,8.6,4.2,82,67,48,30.97,30.71,22,6,22,0.00
2013-11-24,31.5,21.5,11.2,17.6,12.2,6.1,80,68,52,30.84,30.30,20,8,22,0.00
2013-11-25,44.0,33.2,26.0,32.3,24.4,14.9,83,70,56,30.30,30.17,20,7,20,0.00
2013-11-26,32.0,26.6,17.7,26.0,17.1,9.7,88,68,46,30.50,30.25,35,11,37,0.00
2013-11-27,33.4,23.3,11.2,20.6,13.5,7.8,87,67,47,30.49,30.11,20,6,27,0.00
2013-11-28,34.3,27.8,20.0,24.2,19.6,15.2,84,71,55,30.55,30.13,26,8,26,0.00
2013-11-29,45.6,31.6,18.9,29.9,23.5,15.2,87,73,53,30.55,30.20,20,6,20,0.00
2013-11-30,56.2,39.8,26.2,35.3,29.5,22.3,88,68,43,30.19,30.09,16,4,16,0.00
2013-12-1,47.9,36.6,24.4,32.3,28.2,21.1,91,73,51,30.19,29.90,10,3,10,0.00
2013-12-2,62.8,44.6,32.3,38.3,33.3,27.9,90,67,37,29.89,29.53,11,5,13,0.00
2013-12-3,44.2,38.1,34.6,36.8,33.6,30.9,93,84,73,29.71,29.50,19,6,19,0.00
2013-12-4,34.5,23.0,16.8,33.0,19.6,9.3,96,87,72,30.15,29.67,29,12,29,0.00
2013-12-5,17.2,12.5,8.0,10.5,3.4,-1.7,78,67,55,30.55,30.14,30,11,30,0.00
2013-12-6,13.2,6.2,0.5,-0.2,-2.8,-5.5,77,66,53,30.84,30.55,23,9,23,0.00
2013-12-7,13.7,6.3,-1.9,7.8,-1.5,-6.6,82,71,54,30.88,30.53,16,4,16,0.00
2013-12-8,18.2,14.5,9.3,14.6,11.3,5.7,91,87,72,30.53,30.11,20,6,20,0.14
2013-12-9,14.6,6.0,-3.2,7.8,-1.9,-99.9,90,75,64,30.46,30.19,27,7,28,0.00
2013-12-10,29.0,22.4,14.7,27.4,15.5,8.2,94,75,62,30.37,30.18,28,7,28,0.01
2013-12-11,29.0,10.3,2.0,26.2,3.5,-3.6,89,74,61,30.76,30.33,34,8,34,0.01
2013-12-12,33.4,21.1,8.2,24.3,15.0,2.6,89,77,66,30.57,30.16,15,4,16,0.00
2013-12-13,33.6,24.4,15.3,26.5,20.7,13.4,94,86,74,30.16,29.95,20,5,20,0.00
2013-12-14,23.0,18.8,13.0,19.9,15.2,9.9,92,85,78,30.30,30.16,21,8,21,0.00
2013-12-15,28.8,21.9,15.0,23.3,18.2,12.6,92,86,76,30.25,30.04,11,3,11,0.00
2013-12-16,47.1,28.4,14.3,35.2,23.7,11.9,93,83,62,30.23,30.05,24,4,24,0.00
2013-12-17,41.2,33.2,27.7,30.0,24.0,18.5,90,71,43,30.34,30.15,23,7,23,0.00
2013-12-18,56.8,39.4,28.8,34.6,28.7,22.5,83,66,42,30.15,29.75,19,5,19,0.00
2013-12-19,35.1,30.4,19.7,29.6,25.6,17.8,92,82,73,29.94,29.76,26,10,26,0.00
2013-12-20,19.7,16.5,13.7,17.7,13.8,11.2,92,89,85,30.07,29.94,26,9,26,0.01
2013-12-21,25.3,21.7,18.3,20.8,17.8,14.9,90,85,76,29.99,29.89,22,5,22,0.00
2013-12-22,22.8,17.1,9.8,20.2,12.1,3.7,93,81,67,30.52,29.97,27,12,27,0.02
2013-12-23,12.0,6.4,0.9,3.7,-2.2,-8.8,80,68,52,30.75,30.52,25,8,25,0.00
2013-12-24,24.6,13.6,1.4,23.4,9.0,-5.9,95,81,68,30.68,30.26,29,8,30,0.00
2013-12-25,42.7,28.6,19.2,30.5,22.6,17.3,94,79,53,30.40,30.32,34,9,34,0.00
2013-12-26,47.2,34.9,25.1,26.7,23.4,20.9,85,64,42,30.34,30.17,15,6,15,0.00
2013-12-27,62.7,42.0,24.4,32.4,26.7,19.9,85,58,27,30.33,30.11,25,7,25,0.00
2013-12-28,59.6,40.6,15.0,32.7,27.0,7.5,84,61,29,30.19,29.77,47,11,47,0.00
2013-12-29,14.9,8.4,4.3,7.8,-5.8,-12.1,77,53,32,30.48,30.18,39,13,41,0.00
2013-12-30,33.9,17.7,4.9,24.5,5.6,-6.6,81,59,46,30.42,30.16,32,8,32,0.00
2013-12-31,33.3,16.6,7.2,21.2,10.4,3.8,88,77,58,30.39,30.11,25,7,25,0.00
2014-1-1,10.8,7.9,3.2,6.3,3.9,-0.8,87,84,79,30.53,30.24,24,9,24,0.07
2014-1-2,8.3,3.2,-0.3,1.4,-1.7,-4.7,86,80,67,30.61,30.50,13,5,13,0.01